Zurück zum Katalog

STARLINK-34642

AktivKommunikationVLEO
NORAD 64910·PAYLOAD·🇺🇸 United States

Gestartet Jul 26, 2025 von Cape Canaveral Space Force Station

Loading…

Nächste Überflüge (nächste 24 Stunden)

TLE

AktuellSource: CelesTrak SupGP

Epoche: Sep 14, 2026, 21:36 UTC

1 64910C 25157G   26257.90048611 -.00003527  00000+0 -11334-3 0  2571
2 64910  53.1584 185.0403 0001404  85.7217  60.7454 15.31720271    14

Verfolge STARLINK-34642 in Echtzeit mit AllMySat

Download on the App Store